When you browse on this site, cookies collect data to enhance your experience and personalize the content and advertising you see.
Visit our Privacy Policy to learn more. By continuing to use the site, you agree to this use of cookies and data.
  • In Belgien
  • Länderverzeichnis
  • Für 7 Tage
  • Wassertemperatur
  • Satellitenkarten
  • Wetterkarte
  • Widgets
  • user-avatar
    Anmelden

    Stündliche Wetter Amanzimtoti

    Heute, 16 Februar, Samstag

    Zeit Temperatur Niederschläge Wind Luftdruck Luftfeuchtigkeit
    00:00 +25°C° 1.2 mm 1 m/S 755 mmHg 92%
    01:00 +25°C° 1.2 mm 1 m/S 755 mmHg 92%
    02:00 +25°C° 1.2 mm 1 m/S 755 mmHg 91%
    03:00 +25°C° 0.1 mm 1 m/S 754 mmHg 90%
    04:00 +25°C° 0.1 mm 1 m/S 754 mmHg 89%
    05:00 +24°C° 0.1 mm 1 m/S 754 mmHg 88%
    06:00 +25°C° 0 mm 1 m/S 754 mmHg 85%
    07:00 +26°C° 0 mm 1 m/S 754 mmHg 81%
    08:00 +27°C° 0 mm 1 m/S 754 mmHg 78%
    09:00 +29°C° 0 mm 2 m/S 754 mmHg 69%
    10:00 +31°C° 0 mm 2 m/S 754 mmHg 61%
    11:00 +33°C° 0 mm 3 m/S 754 mmHg 52%
    12:00 +33°C° 0 mm 4 m/S 754 mmHg 54%
    13:00 +33°C° 0 mm 5 m/S 754 mmHg 56%
    14:00 +33°C° 0 mm 7 m/S 754 mmHg 59%
    15:00 +30°C° 0 mm 6 m/S 754 mmHg 65%
    16:00 +29°C° 0 mm 5 m/S 754 mmHg 72%
    17:00 +28°C° 0 mm 4 m/S 755 mmHg 79%
    18:00 +26°C° 0 mm 3 m/S 755 mmHg 83%
    19:00 +25°C° 0 mm 2 m/S 756 mmHg 87%
    20:00 +24°C° 0 mm 1 m/S 756 mmHg 90%
    21:00 +24°C° 0 mm 1 m/S 757 mmHg 91%
    22:00 +24°C° 0 mm 2 m/S 757 mmHg 91%
    23:00 +24°C° 0 mm 2 m/S 757 mmHg 92%

    Morgen, 17 Februar, Sonntag

    Zeit Temperatur Niederschläge Wind Luftdruck Luftfeuchtigkeit
    00:00 +23°C° 0 mm 2 m/S 757 mmHg 91%
    01:00 +22°C° 0 mm 3 m/S 757 mmHg 91%
    02:00 +22°C° 0 mm 3 m/S 757 mmHg 91%
    03:00 +22°C° 0 mm 3 m/S 757 mmHg 91%
    04:00 +22°C° 0 mm 4 m/S 757 mmHg 91%
    05:00 +21°C° 0 mm 4 m/S 757 mmHg 91%
    06:00 +22°C° 0 mm 4 m/S 757 mmHg 88%
    07:00 +23°C° 0 mm 5 m/S 758 mmHg 85%
    08:00 +25°C° 0 mm 5 m/S 758 mmHg 82%
    09:00 +26°C° 0.1 mm 5 m/S 758 mmHg 78%
    10:00 +27°C° 0.1 mm 6 m/S 758 mmHg 74%
    11:00 +27°C° 0.1 mm 6 m/S 758 mmHg 70%
    12:00 +28°C° 0.1 mm 6 m/S 758 mmHg 69%
    13:00 +28°C° 0.1 mm 7 m/S 758 mmHg 67%
    14:00 +28°C° 0.1 mm 7 m/S 757 mmHg 66%
    15:00 +28°C° 0 mm 7 m/S 757 mmHg 69%
    16:00 +27°C° 0 mm 7 m/S 757 mmHg 72%
    17:00 +27°C° 0 mm 6 m/S 757 mmHg 75%
    18:00 +26°C° 0 mm 6 m/S 758 mmHg 79%
    19:00 +25°C° 0 mm 5 m/S 759 mmHg 83%
    20:00 +23°C° 0 mm 5 m/S 759 mmHg 87%
    21:00 +22°C° 0 mm 4 m/S 760 mmHg 88%
    22:00 +21°C° 0 mm 4 m/S 760 mmHg 89%
    23:00 +21°C° 0 mm 4 m/S 760 mmHg 90%

    übermorgen, 18 Februar, Montag

    Zeit Temperatur Niederschläge Wind Luftdruck Luftfeuchtigkeit
    00:00 +21°C° 0 mm 4 m/S 760 mmHg 90%
    01:00 +20°C° 0 mm 4 m/S 759 mmHg 90%
    02:00 +20°C° 0 mm 3 m/S 759 mmHg 90%
    03:00 +20°C° 0 mm 3 m/S 759 mmHg 90%
    04:00 +19°C° 0 mm 3 m/S 759 mmHg 91%
    05:00 +19°C° 0 mm 3 m/S 758 mmHg 91%
    06:00 +20°C° 0 mm 3 m/S 758 mmHg 86%
    07:00 +22°C° 0 mm 3 m/S 758 mmHg 80%
    08:00 +24°C° 0 mm 3 m/S 759 mmHg 75%
    09:00 +26°C° 0 mm 3 m/S 758 mmHg 66%
    10:00 +27°C° 0 mm 3 m/S 758 mmHg 58%
    11:00 +29°C° 0 mm 3 m/S 758 mmHg 50%
    12:00 +29°C° 0 mm 3 m/S 758 mmHg 51%
    13:00 +29°C° 0 mm 4 m/S 757 mmHg 52%
    14:00 +29°C° 0 mm 4 m/S 757 mmHg 53%
    15:00 +28°C° 0 mm 4 m/S 756 mmHg 57%
    16:00 +28°C° 0 mm 3 m/S 756 mmHg 62%
    17:00 +27°C° 0 mm 3 m/S 756 mmHg 66%
    18:00 +25°C° 0 mm 2 m/S 757 mmHg 74%
    19:00 +24°C° 0 mm 1 m/S 757 mmHg 81%
    20:00 +20°C° 0 mm 0 m/S 758 mmHg 88%
    21:00 +22°C° 0 mm 1 m/S 758 mmHg 89%
    22:00 +22°C° 0 mm 1 m/S 758 mmHg 90%
    23:00 +20°C° 0 mm 2 m/S 759 mmHg 91%

    19 Februar, Dienstag

    Zeit Temperatur Niederschläge Wind Luftdruck Luftfeuchtigkeit
    00:00 +20°C° 0 mm 2 m/S 758 mmHg 90%
    01:00 +20°C° 0 mm 2 m/S 758 mmHg 89%
    02:00 +20°C° 0 mm 2 m/S 757 mmHg 89%
    03:00 +19°C° 0 mm 2 m/S 757 mmHg 87%
    04:00 +19°C° 0 mm 2 m/S 757 mmHg 86%
    05:00 +19°C° 0 mm 2 m/S 757 mmHg 85%
    06:00 +21°C° 0 mm 2 m/S 757 mmHg 78%
    07:00 +23°C° 0 mm 2 m/S 757 mmHg 72%
    08:00 +25°C° 0 mm 2 m/S 757 mmHg 65%
    09:00 +27°C° 0 mm 4 m/S 757 mmHg 62%
    10:00 +28°C° 0 mm 5 m/S 756 mmHg 58%
    11:00 +30°C° 0 mm 6 m/S 756 mmHg 55%
    12:00 +30°C° 0 mm 6 m/S 755 mmHg 57%
    13:00 +30°C° 0 mm 7 m/S 755 mmHg 58%
    14:00 +30°C° 0 mm 7 m/S 754 mmHg 60%
    15:00 +29°C° 0 mm 7 m/S 754 mmHg 63%
    16:00 +29°C° 0 mm 7 m/S 754 mmHg 67%
    17:00 +28°C° 0 mm 7 m/S 754 mmHg 70%
    18:00 +27°C° 0 mm 6 m/S 755 mmHg 76%
    19:00 +24°C° 0 mm 6 m/S 755 mmHg 81%
    20:00 +23°C° 0 mm 5 m/S 756 mmHg 87%
    21:00 +23°C° 0 mm 5 m/S 756 mmHg 88%
    22:00 +23°C° 0 mm 5 m/S 756 mmHg 90%
    23:00 +22°C° 0 mm 5 m/S 755 mmHg 91%

    20 Februar, Mittwoch

    Zeit Temperatur Niederschläge Wind Luftdruck Luftfeuchtigkeit
    00:00 +22°C° 0 mm 5 m/S 755 mmHg 92%
    01:00 +22°C° 0 mm 5 m/S 754 mmHg 92%
    02:00 +22°C° 0 mm 5 m/S 754 mmHg 93%
    03:00 +21°C° 0 mm 5 m/S 753 mmHg 92%
    04:00 +21°C° 0 mm 5 m/S 753 mmHg 91%
    05:00 +21°C° 0 mm 5 m/S 753 mmHg 91%
    06:00 +23°C° 0 mm 5 m/S 753 mmHg 83%
    07:00 +25°C° 0 mm 5 m/S 753 mmHg 76%
    08:00 +27°C° 0 mm 5 m/S 753 mmHg 68%
    09:00 +29°C° 0 mm 6 m/S 753 mmHg 63%
    10:00 +32°C° 0 mm 6 m/S 753 mmHg 58%
    11:00 +33°C° 0 mm 7 m/S 752 mmHg 54%
    12:00 +34°C° 0 mm 7 m/S 752 mmHg 55%
    13:00 +34°C° 0 mm 7 m/S 751 mmHg 56%
    14:00 +34°C° 0 mm 8 m/S 751 mmHg 58%
    15:00 +33°C° 0 mm 7 m/S 751 mmHg 62%
    16:00 +32°C° 0 mm 7 m/S 751 mmHg 66%
    17:00 +30°C° 0 mm 6 m/S 751 mmHg 71%
    18:00 +28°C° 0 mm 5 m/S 752 mmHg 78%
    19:00 +27°C° 0 mm 4 m/S 753 mmHg 85%
    20:00 +25°C° 0 mm 3 m/S 754 mmHg 91%
    21:00 +25°C° 0 mm 2 m/S 755 mmHg 91%
    22:00 +25°C° 0 mm 2 m/S 755 mmHg 91%
    23:00 +25°C° 0 mm 1 m/S 756 mmHg 91%

    21 Februar, Donnerstag

    Zeit Temperatur Niederschläge Wind Luftdruck Luftfeuchtigkeit
    00:00 +25°C° 0 mm 1 m/S 756 mmHg 92%
    01:00 +25°C° 0 mm 1 m/S 756 mmHg 92%
    02:00 +25°C° 0 mm 1 m/S 757 mmHg 93%
    03:00 +25°C° 0 mm 2 m/S 757 mmHg 92%
    04:00 +25°C° 0 mm 3 m/S 757 mmHg 92%
    05:00 +25°C° 0 mm 4 m/S 757 mmHg 91%
    06:00 +25°C° 0 mm 4 m/S 758 mmHg 87%
    07:00 +26°C° 0 mm 5 m/S 758 mmHg 82%
    08:00 +27°C° 0 mm 5 m/S 759 mmHg 78%
    09:00 +28°C° 0 mm 6 m/S 758 mmHg 72%
    10:00 +30°C° 0 mm 6 m/S 758 mmHg 66%
    11:00 +32°C° 0 mm 7 m/S 758 mmHg 60%
    12:00 +32°C° 0 mm 7 m/S 758 mmHg 62%
    13:00 +31°C° 0 mm 8 m/S 758 mmHg 64%
    14:00 +31°C° 0 mm 8 m/S 758 mmHg 65%
    15:00 +29°C° 0 mm 7 m/S 758 mmHg 68%
    16:00 +29°C° 0 mm 7 m/S 758 mmHg 70%
    17:00 +28°C° 0 mm 6 m/S 758 mmHg 73%
    18:00 +27°C° 0 mm 6 m/S 759 mmHg 78%
    19:00 +26°C° 0 mm 5 m/S 759 mmHg 83%
    20:00 +25°C° 0 mm 5 m/S 760 mmHg 88%
    21:00 +23°C° 0 mm 4 m/S 760 mmHg 89%
    22:00 +23°C° 0 mm 4 m/S 760 mmHg 90%
    23:00 +23°C° 0 mm 4 m/S 760 mmHg 91%
    Mehr zeigen